• In United Kingdom
  • List of Countries
  • For 7 days
  • Water Temperature
  • Satellite Maps
  • Weather Map
  • Weather Widgets
  • user-avatar
    Login

    Hourly Weather Lisburn

    Today, 20 June, Wednesday

    Time Temperature Precipitation Wind Pressure Humidity
    00:00 +16°C° 0 mm 7 mps 754 mmHg 96%
    01:00 +16°C° 0.4 mm 7 mps 754 mmHg 96%
    02:00 +16°C° 0.4 mm 8 mps 754 mmHg 96%
    03:00 +16°C° 0.4 mm 8 mps 754 mmHg 95%
    04:00 +14°C° 0.3 mm 7 mps 755 mmHg 95%
    05:00 +12°C° 0.3 mm 7 mps 755 mmHg 95%
    06:00 +10°C° 0 mm 6 mps 756 mmHg 93%
    07:00 +10°C° 0 mm 7 mps 757 mmHg 88%
    08:00 +11°C° 0 mm 7 mps 757 mmHg 83%
    09:00 +11°C° 0 mm 7 mps 758 mmHg 77%
    10:00 +12°C° 0 mm 7 mps 759 mmHg 74%
    11:00 +14°C° 0 mm 6 mps 760 mmHg 70%
    12:00 +14°C° 0 mm 6 mps 761 mmHg 64%
    13:00 +14°C° 0 mm 6 mps 761 mmHg 65%
    14:00 +14°C° 0 mm 6 mps 761 mmHg 65%
    15:00 +13°C° 0 mm 5 mps 761 mmHg 66%
    16:00 +13°C° 0 mm 5 mps 762 mmHg 68%
    17:00 +13°C° 0 mm 5 mps 762 mmHg 70%
    18:00 +12°C° 0 mm 5 mps 762 mmHg 72%
    19:00 +10°C° 0 mm 6 mps 762 mmHg 74%
    20:00 +9°C° 0 mm 6 mps 762 mmHg 76%
    21:00 +9°C° 0 mm 6 mps 763 mmHg 78%
    22:00 +8°C° 0 mm 7 mps 763 mmHg 79%
    23:00 +6°C° 0 mm 7 mps 763 mmHg 79%

    Tomorrow, 21 June, Thursday

    Time Temperature Precipitation Wind Pressure Humidity
    00:00 +6°C° 0 mm 7 mps 764 mmHg 80%
    01:00 +6°C° 0 mm 7 mps 764 mmHg 81%
    02:00 +6°C° 0 mm 7 mps 764 mmHg 82%
    03:00 +6°C° 0 mm 7 mps 765 mmHg 83%
    04:00 +6°C° 0 mm 7 mps 765 mmHg 82%
    05:00 +8°C° 0 mm 7 mps 766 mmHg 81%
    06:00 +8°C° 0 mm 6 mps 766 mmHg 80%
    07:00 +9°C° 0 mm 7 mps 766 mmHg 76%
    08:00 +10°C° 0 mm 7 mps 767 mmHg 72%
    09:00 +11°C° 0 mm 7 mps 767 mmHg 67%
    10:00 +12°C° 0 mm 7 mps 768 mmHg 66%
    11:00 +12°C° 0 mm 7 mps 768 mmHg 64%
    12:00 +14°C° 0 mm 6 mps 768 mmHg 63%
    13:00 +14°C° 0 mm 6 mps 769 mmHg 63%
    14:00 +14°C° 0 mm 6 mps 769 mmHg 63%
    15:00 +14°C° 0 mm 6 mps 769 mmHg 63%
    16:00 +14°C° 0 mm 6 mps 769 mmHg 65%
    17:00 +13°C° 0 mm 6 mps 769 mmHg 68%
    18:00 +13°C° 0 mm 6 mps 769 mmHg 71%
    19:00 +10°C° 0 mm 6 mps 770 mmHg 76%
    20:00 +9°C° 0 mm 6 mps 770 mmHg 80%
    21:00 +8°C° 0 mm 5 mps 770 mmHg 85%
    22:00 +7°C° 0 mm 5 mps 771 mmHg 88%
    23:00 +7°C° 0 mm 5 mps 771 mmHg 91%

    Day after tomorrow, 22 June, Friday

    Time Temperature Precipitation Wind Pressure Humidity
    00:00 +6°C° 0 mm 5 mps 771 mmHg 93%
    01:00 +6°C° 0 mm 5 mps 771 mmHg 94%
    02:00 +6°C° 0 mm 4 mps 771 mmHg 94%
    03:00 +5°C° 0 mm 4 mps 771 mmHg 94%
    04:00 +6°C° 0 mm 4 mps 771 mmHg 93%
    05:00 +7°C° 0 mm 4 mps 771 mmHg 91%
    06:00 +8°C° 0 mm 4 mps 771 mmHg 89%
    07:00 +10°C° 0 mm 4 mps 771 mmHg 84%
    08:00 +11°C° 0 mm 4 mps 771 mmHg 78%
    09:00 +13°C° 0 mm 4 mps 771 mmHg 72%
    10:00 +14°C° 0 mm 4 mps 771 mmHg 69%
    11:00 +15°C° 0 mm 4 mps 771 mmHg 66%
    12:00 +15°C° 0 mm 4 mps 771 mmHg 63%
    13:00 +17°C° 0 mm 4 mps 770 mmHg 63%
    14:00 +17°C° 0 mm 3 mps 770 mmHg 64%
    15:00 +17°C° 0 mm 3 mps 770 mmHg 64%
    16:00 +17°C° 0 mm 3 mps 770 mmHg 67%
    17:00 +17°C° 0 mm 3 mps 769 mmHg 69%
    18:00 +16°C° 0 mm 3 mps 769 mmHg 72%
    19:00 +14°C° 0 mm 3 mps 769 mmHg 78%
    20:00 +12°C° 0 mm 3 mps 769 mmHg 83%
    21:00 +11°C° 0 mm 3 mps 770 mmHg 89%
    22:00 +10°C° 0 mm 3 mps 769 mmHg 91%
    23:00 +9°C° 0 mm 2 mps 769 mmHg 92%

    23 June, Saturday

    Time Temperature Precipitation Wind Pressure Humidity
    00:00 +9°C° 0 mm 2 mps 769 mmHg 94%
    01:00 +8°C° 0 mm 2 mps 769 mmHg 94%
    02:00 +8°C° 0 mm 2 mps 769 mmHg 95%
    03:00 +7°C° 0 mm 2 mps 769 mmHg 95%
    04:00 +8°C° 0 mm 2 mps 768 mmHg 93%
    05:00 +9°C° 0 mm 2 mps 768 mmHg 92%
    06:00 +9°C° 0 mm 2 mps 768 mmHg 90%
    07:00 +12°C° 0 mm 2 mps 768 mmHg 84%
    08:00 +13°C° 0 mm 2 mps 768 mmHg 77%
    09:00 +15°C° 0 mm 2 mps 768 mmHg 71%
    10:00 +16°C° 0 mm 2 mps 768 mmHg 67%
    11:00 +17°C° 0 mm 2 mps 768 mmHg 64%
    12:00 +18°C° 0 mm 2 mps 768 mmHg 61%
    13:00 +18°C° 0 mm 2 mps 767 mmHg 61%
    14:00 +19°C° 0 mm 2 mps 767 mmHg 61%
    15:00 +19°C° 0 mm 2 mps 767 mmHg 61%
    16:00 +19°C° 0 mm 2 mps 767 mmHg 65%
    17:00 +18°C° 0 mm 2 mps 767 mmHg 69%
    18:00 +17°C° 0 mm 2 mps 766 mmHg 73%
    19:00 +16°C° 0 mm 2 mps 766 mmHg 79%
    20:00 +14°C° 0 mm 2 mps 766 mmHg 85%
    21:00 +12°C° 0 mm 2 mps 766 mmHg 91%
    22:00 +12°C° 0 mm 1 mps 766 mmHg 92%
    23:00 +11°C° 0 mm 1 mps 766 mmHg 93%

    24 June, Sunday

    Time Temperature Precipitation Wind Pressure Humidity
    00:00 +11°C° 0 mm 1 mps 766 mmHg 93%
    01:00 +11°C° 0 mm 1 mps 766 mmHg 93%
    02:00 +10°C° 0 mm 1 mps 766 mmHg 94%
    03:00 +10°C° 0 mm 1 mps 765 mmHg 94%
    04:00 +11°C° 0 mm 1 mps 765 mmHg 93%
    05:00 +12°C° 0 mm 1 mps 765 mmHg 92%
    06:00 +13°C° 0 mm 1 mps 765 mmHg 91%
    07:00 +15°C° 0 mm 2 mps 765 mmHg 84%
    08:00 +16°C° 0 mm 2 mps 765 mmHg 77%
    09:00 +18°C° 0 mm 2 mps 765 mmHg 70%
    10:00 +19°C° 0 mm 2 mps 765 mmHg 68%
    11:00 +20°C° 0 mm 2 mps 765 mmHg 65%
    12:00 +21°C° 0 mm 2 mps 765 mmHg 62%
    13:00 +21°C° 0 mm 3 mps 765 mmHg 63%
    14:00 +22°C° 0 mm 3 mps 765 mmHg 64%
    15:00 +22°C° 0 mm 3 mps 765 mmHg 66%
    16:00 +22°C° 0 mm 3 mps 764 mmHg 70%
    17:00 +22°C° 0 mm 3 mps 764 mmHg 73%
    18:00 +21°C° 0 mm 3 mps 764 mmHg 77%
    19:00 +20°C° 0 mm 3 mps 764 mmHg 82%
    20:00 +18°C° 0 mm 3 mps 764 mmHg 87%
    21:00 +17°C° 0 mm 3 mps 764 mmHg 92%
    22:00 +16°C° 0 mm 3 mps 764 mmHg 92%
    23:00 +14°C° 0 mm 3 mps 764 mmHg 92%

    25 June, Monday

    Time Temperature Precipitation Wind Pressure Humidity
    00:00 +13°C° 0 mm 3 mps 764 mmHg 93%
    01:00 +14°C° 0 mm 2 mps 764 mmHg 93%
    02:00 +14°C° 0 mm 2 mps 764 mmHg 93%
    03:00 +14°C° 0 mm 2 mps 764 mmHg 94%
    04:00 +14°C° 0 mm 2 mps 764 mmHg 93%
    05:00 +15°C° 0 mm 2 mps 764 mmHg 92%
    06:00 +16°C° 0 mm 2 mps 764 mmHg 91%
    07:00 +17°C° 0 mm 2 mps 764 mmHg 85%
    08:00 +18°C° 0 mm 2 mps 764 mmHg 80%
    09:00 +20°C° 0 mm 3 mps 764 mmHg 75%
    10:00 +21°C° 0 mm 3 mps 764 mmHg 71%
    11:00 +21°C° 0 mm 3 mps 764 mmHg 67%
    12:00 +22°C° 0 mm 3 mps 764 mmHg 63%
    13:00 +22°C° 0 mm 3 mps 763 mmHg 63%
    14:00 +22°C° 0 mm 3 mps 763 mmHg 63%
    15:00 +23°C° 0 mm 4 mps 763 mmHg 62%
    16:00 +22°C° 0 mm 3 mps 763 mmHg 66%
    17:00 +22°C° 0 mm 3 mps 763 mmHg 70%
    18:00 +21°C° 0 mm 3 mps 763 mmHg 73%
    19:00 +20°C° 0 mm 3 mps 763 mmHg 78%
    20:00 +18°C° 0 mm 3 mps 763 mmHg 83%
    21:00 +16°C° 0 mm 3 mps 763 mmHg 88%
    22:00 +16°C° 0 mm 2 mps 763 mmHg 88%
    23:00 +16°C° 0 mm 2 mps 763 mmHg 89%
    Show more